Weather History for Kansas City, MO

Change the Weather History Date:

Friday, September 6, 2013

  Actual Average Record
Temperature  
Mean Temperature 80 °F -  
Max Temperature 91 °F 83 °F 99 °F (1998)
Min Temperature 70 °F 63 °F 53 °F (2011)
Cooling Degree Days 16    
Growing Degree Days 30 (Base 50)    
Moisture  
Dew Point 61 °F    
Average Humidity 52    
Maximum Humidity 73    
Minimum Humidity 38    
Precipitation  
Precipitation 0.00 in - - ()
Sea Level Pressure  
Sea Level Pressure 30.05 in    
Wind  
Wind Speed 5 mph (South)    
Max Wind Speed 13 mph    
Max Gust Speed 18 mph    
Visibility 10 miles    
Events      
Averages and records for this station are not official NWS values.
T = Trace of Precipitation, MM = Missing Value Source: NWS Daily Summary

Daily Weather History Graph

Daily Weather History Graph

Search for Another Location

Airport:

Trip Planner

Search our weather history database for the weather conditions in past years. The results will help you decide how hot, cold, wet, or windy it might be!

Date:

Astronomy

Sep. 06, 2013 Rise Set
Actual Time 6:51 AM CDT 7:40 PM CDT
Civil Twilight 6:24 AM CDT 8:07 PM CDT
Nautical Twilight 5:52 AM CDT 8:39 PM CDT
Astronomical Twilight 5:19 AM CDT 9:13 PM CDT
Moon 8:04 AM CDT (9/6) 8:06 PM CDT (9/6)
Length of Visible Light 13h 43m
Length of Day
12h 48m
New Moon, 2% of the Moon is Illuminated
Sep 6
New Moon
Sep 12
First Quarter
Sep 19
Full
Sep 26
Last Quarter
Oct 4
New

Hourly Weather History & Observations

Time (CDT) Temp. Heat Index Dew Point Humidity Pressure Visibility Wind Dir Wind Speed Gust Speed Precip Events Conditions
12:54 AM 77.0 °F - 60.1 °F 56% 30.11 in 10.0 mi South 8.1 mph - N/A   Clear
1:54 AM 73.0 °F - 60.1 °F 64% 30.10 in 10.0 mi South 6.9 mph - N/A   Clear
2:54 AM 73.9 °F - 60.1 °F 62% 30.09 in 10.0 mi Calm Calm - N/A   Clear
3:54 AM 73.9 °F - 60.1 °F 62% 30.09 in 10.0 mi Calm Calm - N/A   Clear
4:54 AM 72.0 °F - 61.0 °F 68% 30.09 in 10.0 mi Calm Calm - N/A   Clear
5:54 AM 72.0 °F - 61.0 °F 68% 30.09 in 10.0 mi ESE 3.5 mph - N/A   Clear
6:54 AM 70.0 °F - 61.0 °F 73% 30.11 in 10.0 mi Calm Calm - N/A   Clear
7:54 AM 73.9 °F - 62.1 °F 66% 30.12 in 10.0 mi Calm Calm - N/A   Clear
8:54 AM 77.0 °F - 61.0 °F 58% 30.12 in 10.0 mi South 4.6 mph - N/A   Clear
9:54 AM 81.0 °F 81.9 °F 62.1 °F 52% 30.11 in 10.0 mi South 5.8 mph - N/A   Clear
10:54 AM 84.0 °F 84.4 °F 61.0 °F 46% 30.11 in 10.0 mi South 8.1 mph - N/A   Clear
11:54 AM 86.0 °F 86.3 °F 62.1 °F 44% 30.10 in 10.0 mi SSW 6.9 mph - N/A   Clear
12:54 PM 88.0 °F 88.4 °F 62.1 °F 42% 30.08 in 10.0 mi Variable 4.6 mph - N/A   Clear
1:54 PM 90.0 °F 91.3 °F 64.0 °F 42% 30.05 in 10.0 mi South 5.8 mph - N/A   Clear
2:54 PM 90.0 °F 90.3 °F 62.1 °F 39% 30.03 in 10.0 mi Variable 4.6 mph - N/A   Clear
3:54 PM 90.0 °F 90.3 °F 62.1 °F 39% 30.00 in 10.0 mi South 6.9 mph - N/A   Clear
4:54 PM 91.0 °F 91.5 °F 62.1 °F 38% 29.99 in 10.0 mi South 8.1 mph - N/A   Clear
5:54 PM 89.1 °F 89.3 °F 62.1 °F 40% 29.98 in 10.0 mi South 10.4 mph - N/A   Clear
6:54 PM 86.0 °F 86.3 °F 62.1 °F 44% 29.97 in 10.0 mi South 10.4 mph - N/A   Clear
7:54 PM 84.0 °F 84.4 °F 61.0 °F 46% 29.96 in 10.0 mi South 6.9 mph - N/A   Clear
8:54 PM 82.9 °F 83.7 °F 62.1 °F 49% 29.97 in 10.0 mi South 6.9 mph - N/A   Clear
9:54 PM 82.0 °F 83.0 °F 62.1 °F 51% 29.97 in 10.0 mi South 9.2 mph - N/A   Clear
10:54 PM 81.0 °F 81.6 °F 60.1 °F 49% 29.97 in 10.0 mi South 12.7 mph 18.4 mph N/A   Clear
11:54 PM 79.0 °F - 60.1 °F 52% 29.97 in 10.0 mi South 8.1 mph - N/A   Clear